Wind_Speed
37 39 42 44 45 45 45 45 45 46 46 46 46 46 46 45 45 46 46 48 49 51 53 53 54 54 54 54 53 52 51 49 49 49 48 48 46 45 44 44 42 42 42
41 44 45 45 44 42 41 40 41 41 43 44 45 45 46 47 48 49 49 49 50 51 52 54 55 56 56 55 54 54 53 52 51 51 51 50 48 47 46 45 45 44 43
44 44 42 41 40 40 39 39 39 40 41 43 44 45 46 47 48 48 49 49 50 52 53 54 55 55 56 55 55 55 54 54 54 54 54 53 50 49 48 48 48 47 45
37 36 36 36 37 37 37 37 38 39 40 42 43 44 45 46 47 48 49 50 52 53 54 55 56 56 56 57 57 57 56 56 56 56 56 54 52 51 50 49 49 49 47
33 32 32 33 34 34 36 37 39 41 42 44 45 46 47 49 51 52 53 55 56 57 58 59 60 60 60 60 60 60 58 57 57 57 57 55 54 52 50 50 50 49 49
31 31 32 34 35 37 39 41 43 44 46 48 50 50 51 52 53 55 57 59 61 62 63 64 64 64 65 64 64 62 61 59 59 58 58 56 54 52 50 49 50 50 49
32 34 36 37 40 42 44 46 48 50 52 55 56 56 56 57 57 58 59 61 62 63 64 65 65 66 66 67 67 66 64 62 60 59 58 57 56 54 51 49 49 50 50
36 38 41 43 45 47 50 52 54 55 56 57 59 61 60 58 58 59 60 61 62 62 63 63 63 64 64 65 64 64 64 62 61 60 60 60 58 55 53 49 47 49 50
41 44 46 48 50 51 52 54 56 58 59 59 62 64 66 66 66 65 65 65 65 65 66 65 65 65 64 63 61 61 61 62 61 61 62 61 58 55 53 50 46 48 50
46 47 48 50 51 53 55 57 59 60 62 63 65 69 72 75 77 76 74 73 71 70 68 67 66 66 65 64 62 60 60 61 61 62 63 63 61 58 53 50 48 48 50
46 48 50 53 56 58 60 62 63 65 67 70 73 75 78 80 82 84 82 81 81 80 79 76 72 69 66 65 64 62 62 63 64 65 66 65 63 59 54 51 50 49 51
50 53 57 61 64 66 68 70 72 74 76 78 81 82 84 86 88 91 92 91 90 88 88 86 84 79 74 71 68 67 66 66 66 67 67 66 63 61 57 54 52 52 53
56 60 64 67 70 73 74 76 78 80 82 85 87 89 92 94 96 97 100 100 100 97 95 91 88 86 82 78 74 71 71 71 71 69 69 68 66 63 61 59 57 57 56
63 67 70 72 74 75 77 79 82 84 88 91 94 96 98 99 99 100 100 100 102 100 96 92 87 84 81 79 77 74 73 73 73 73 71 71 70 68 65 63 61 60 59
71 74 75 77 78 81 84 86 89 93 96 99 101 103 103 102 100 98 95 92 91 92 92 86 81 77 75 73 73 74 73 71 72 72 71 71 71 69 64 61 59 58 57
74 77 79 81 84 86 90 93 96 99 102 103 104 103 101 99 95 90 85 78 75 77 79 74 72 70 68 68 68 70 71 72 72 72 71 69 68 67 64 62 60 61 59
78 80 82 84 87 90 94 98 102 104 105 105 103 100 95 90 84 77 71 66 65 68 71 68 65 64 65 66 67 68 68 68 68 68 68 67 66 66 64 64 63 62 59
80 82 85 88 92 96 100 103 105 105 103 100 95 90 84 77 70 65 62 61 63 66 70 70 67 65 65 66 67 66 66 66 66 65 65 64 64 64 64 64 65 63 61
82 86 90 95 99 102 103 103 101 97 94 89 84 79 75 70 66 65 65 66 68 70 74 78 77 74 71 70 70 68 65 64 64 65 64 63 63 63 63 63 63 62 61
87 92 97 100 102 102 99 96 92 87 83 80 76 74 73 72 72 71 72 74 76 79 81 85 86 84 81 78 76 73 68 64 63 63 65 64 64 64 63 62 62 61 60
93 97 99 99 98 94 90 86 83 81 79 77 75 75 76 77 78 80 81 83 86 88 90 93 93 90 86 81 78 75 72 65 60 60 62 64 65 64 63 63 61 60 59
97 98 96 93 88 84 82 82 83 83 82 82 81 81 82 84 86 88 91 93 94 96 97 96 92 85 79 74 71 69 67 63 58 56 59 60 61 62 62 62 60 59 58
96 93 88 85 82 83 86 88 89 90 89 89 89 89 89 89 91 93 93 94 93 92 89 86 80 72 67 63 60 57 57 57 55 54 57 56 57 58 59 60 60 59 58
90 85 82 81 84 88 91 91 90 88 86 84 82 80 79 79 79 80 81 79 76 71 67 64 61 58 55 50 46 46 47 50 50 51 54 54 54 56 57 59 60 60 60
82 79 79 85 89 90 89 86 83 81 76 70 66 65 65 65 62 61 61 60 56 52 48 46 46 45 43 39 36 36 38 41 43 45 49 51 52 54 55 57 58 59 60
77 78 82 88 91 89 83 79 77 73 67 61 58 57 56 56 53 51 50 49 45 41 36 33 33 34 32 28 27 28 30 33 35 37 40 46 48 49 49 49 50 53 54
Wind_Direction
286 285 286 289 290 290 288 287 287 289 290 291 291 292 293 293 293 292 291 290 289 289 288 288 289 289 290 290 289 290 291 291 291 292 293 295 294 293 293 291 287 286 285
288 288 290 291 292 291 290 289 289 289 290 290 291 291 291 290 290 290 291 291 290 289 288 288 288 288 288 289 288 288 289 289 290 291 291 292 292 292 290 288 284 285 282
288 289 290 290 289 289 289 288 288 289 290 290 290 289 288 288 288 289 289 288 288 287 286 286 286 286 286 287 287 287 288 287 287 288 289 290 289 290 289 286 284 284 282
291 292 291 290 290 291 292 292 293 292 293 292 291 291 292 291 291 290 289 288 287 286 286 285 285 285 285 285 285 285 285 285 286 287 288 288 288 288 287 285 283 282 280
293 294 295 295 296 296 295 294 293 293 293 292 293 293 294 293 293 292 291 289 288 288 287 286 286 286 286 285 285 285 284 285 285 285 285 284 285 286 284 283 282 280 279
297 297 296 295 294 294 293 293 293 293 293 292 292 292 291 290 290 290 289 289 288 288 288 288 288 288 287 287 286 286 285 284 283 282 282 282 282 284 282 281 281 278 275
295 295 295 294 294 294 294 294 295 295 295 294 294 293 292 292 291 290 289 288 288 288 288 288 287 286 286 285 285 284 284 282 281 280 280 280 280 281 280 278 276 271 269
294 294 295 296 296 297 297 298 298 298 298 298 297 296 295 294 293 292 292 291 290 289 288 287 286 285 285 285 285 284 282 280 279 278 278 278 279 279 279 276 273 266 265
295 296 297 298 299 300 300 301 301 300 299 298 298 298 298 297 295 294 293 292 291 290 288 287 285 284 283 282 280 279 277 276 276 276 276 276 277 278 278 273 270 264 263
297 299 301 302 302 301 300 300 299 298 298 298 298 298 299 299 298 296 294 293 291 290 288 287 285 283 281 279 276 274 271 270 270 270 271 273 274 275 274 270 267 264 263
302 303 303 302 302 301 301 300 299 299 298 297 297 297 298 297 297 296 294 292 291 291 290 288 285 281 278 274 273 271 268 266 266 266 266 268 270 271 269 266 264 263 262
305 305 305 305 305 304 303 301 300 299 298 297 297 297 297 296 296 295 294 292 290 289 289 288 287 283 278 273 269 267 265 264 264 265 266 266 268 268 267 265 263 261 260
305 306 306 305 304 303 302 300 299 299 298 298 298 298 298 297 296 295 294 293 291 289 288 287 286 284 281 276 270 265 261 261 261 261 262 263 265 266 265 264 262 260 258
306 306 305 304 303 302 301 300 299 299 299 299 299 299 298 297 296 295 294 293 291 289 288 286 284 282 278 275 272 266 261 258 258 258 257 258 260 262 263 263 262 260 257
307 307 306 305 304 304 303 303 303 302 302 301 300 299 298 297 296 295 294 293 292 290 288 286 284 281 278 274 270 267 264 260 258 257 257 257 258 259 260 261 261 260 257
307 307 306 306 305 305 304 304 303 302 301 300 299 298 297 296 295 294 292 291 290 288 288 286 283 280 276 271 268 265 262 259 257 256 256 257 258 258 257 257 257 258 257
308 307 306 305 305 304 304 304 303 302 301 300 299 298 296 295 294 292 291 290 288 287 288 288 287 285 281 277 272 268 263 260 257 255 254 255 256 256 255 254 252 253 254
307 306 305 305 305 305 304 304 303 303 301 300 298 297 295 293 291 290 289 289 288 288 288 289 288 286 284 282 278 273 268 263 259 254 252 252 252 253 253 254 253 251 251
306 306 306 306 306 306 306 306 305 304 302 301 299 297 294 292 290 289 288 288 287 288 288 288 289 288 285 282 278 275 271 266 261 256 252 250 250 250 251 252 253 252 250
307 308 308 309 309 309 309 308 306 305 303 300 298 295 292 291 290 288 287 286 286 286 286 287 288 287 285 282 278 274 271 267 263 258 254 250 249 248 248 249 250 251 250
310 311 311 312 312 312 311 309 307 306 303 300 297 293 291 289 288 287 286 286 285 285 286 287 287 286 284 281 277 273 270 265 261 258 255 251 248 247 247 248 249 249 249
313 314 314 315 314 314 312 311 308 306 303 300 297 294 291 289 287 286 285 285 285 285 286 286 286 285 284 281 277 273 268 263 257 255 255 251 248 246 246 248 248 247 247
316 316 316 316 316 315 313 310 307 305 303 300 298 296 294 292 290 287 285 284 284 284 285 285 286 286 284 281 276 271 264 258 253 249 250 249 247 246 246 247 247 247 246
317 317 317 317 317 316 314 311 309 307 306 304 303 302 301 299 296 293 289 287 285 284 284 284 285 285 284 280 275 269 260 253 249 246 247 246 245 245 245 246 247 246 246
317 317 318 319 320 319 317 316 314 312 312 312 312 312 310 307 303 299 295 293 290 288 286 285 283 282 280 276 271 265 258 252 246 242 244 245 244 244 244 245 246 246 245
316 318 321 323 322 321 320 318 317 317 318 318 318 316 313 311 308 305 302 301 299 296 292 287 281 277 274 272 267 264 261 257 250 243 242 244 243 242 241 241 243 243 242
Height
5812 5810 5808 5806 5803 5801 5798 5796 5794 5791 5789 5786 5784 5781 5779 5777 5775 5773 5771 5768 5765 5762 5759 5757 5754 5752 5749 5746 5743 5740 5738 5736 5734 5731 5729 5726 5723 5721 5719 5717 5715 5713 5712
5804 5802 5800 5797 5794 5791 5789 5787 5784 5782 5779 5776 5774 5771 5768 5766 5764 5762 5760 5757 5754 5751 5748 5745 5743 5740 5738 5735 5732 5729 5727 5724 5722 5720 5717 5714 5711 5709 5706 5705 5703 5701 5700
5796 5794 5792 5789 5785 5782 5780 5777 5775 5772 5770 5767 5764 5760 5758 5756 5753 5751 5748 5745 5742 5739 5736 5733 5731 5728 5725 5723 5720 5717 5715 5712 5710 5707 5705 5703 5700 5697 5695 5692 5691 5689 5687
5789 5787 5784 5781 5777 5775 5772 5769 5766 5763 5760 5757 5754 5751 5749 5746 5743 5739 5736 5733 5729 5726 5723 5720 5717 5715 5712 5710 5707 5704 5702 5700 5697 5694 5692 5690 5688 5685 5683 5680 5678 5677 5675
5782 5780 5778 5774 5771 5769 5765 5761 5758 5754 5752 5749 5745 5743 5739 5735 5731 5728 5724 5720 5716 5713 5710 5707 5704 5701 5698 5695 5693 5690 5688 5686 5684 5681 5679 5676 5675 5673 5670 5668 5666 5665 5663
5776 5773 5771 5767 5764 5761 5757 5753 5749 5745 5742 5737 5734 5731 5728 5724 5720 5716 5711 5707 5703 5699 5696 5693 5690 5686 5683 5679 5677 5674 5673 5671 5669 5667 5665 5663 5661 5659 5658 5656 5654 5653 5651
5769 5766 5763 5759 5755 5752 5748 5743 5739 5735 5731 5725 5721 5718 5716 5711 5707 5702 5697 5693 5689 5685 5681 5677 5673 5670 5666 5663 5660 5657 5655 5654 5653 5651 5649 5648 5647 5645 5644 5643 5641 5639 5638
5761 5758 5754 5750 5746 5742 5738 5732 5727 5722 5718 5712 5706 5702 5701 5701 5695 5689 5683 5678 5674 5669 5664 5660 5656 5652 5649 5646 5643 5640 5638 5636 5635 5634 5632 5631 5630 5630 5629 5628 5627 5625 5625
5753 5749 5745 5741 5736 5732 5727 5721 5716 5710 5706 5700 5692 5686 5682 5680 5677 5676 5671 5665 5659 5654 5649 5644 5639 5634 5630 5627 5625 5623 5620 5618 5616 5615 5614 5613 5613 5613 5613 5613 5612 5612 5611
5745 5740 5736 5731 5727 5722 5716 5711 5705 5698 5693 5687 5680 5672 5665 5659 5654 5652 5653 5648 5643 5638 5632 5627 5622 5616 5612 5607 5605 5603 5601 5598 5597 5596 5595 5594 5594 5595 5596 5596 5596 5596 5596
5736 5731 5726 5721 5716 5710 5704 5698 5691 5684 5677 5670 5664 5657 5649 5641 5632 5625 5626 5626 5621 5618 5612 5608 5603 5598 5593 5588 5586 5584 5582 5579 5577 5575 5574 5574 5574 5575 5576 5577 5578 5579 5580
5725 5720 5714 5708 5701 5694 5688 5681 5674 5666 5659 5651 5644 5636 5628 5621 5612 5601 5596 5597 5595 5595 5588 5584 5580 5576 5572 5567 5564 5563 5561 5559 5557 5554 5553 5554 5555 5556 5557 5558 5560 5561 5562
5714 5708 5701 5694 5687 5680 5672 5664 5657 5648 5639 5631 5622 5613 5604 5594 5584 5574 5564 5561 5560 5564 5561 5560 5553 5548 5546 5544 5542 5540 5538 5537 5535 5534 5532 5532 5534 5536 5537 5539 5540 5542 5543
5701 5694 5687 5679 5671 5663 5655 5647 5638 5628 5619 5609 5599 5589 5578 5568 5556 5545 5534 5526 5522 5526 5528 5530 5526 5521 5517 5514 5513 5512 5511 5512 5511 5510 5510 5511 5512 5514 5517 5519 5521 5522 5524
5686 5678 5670 5662 5653 5643 5634 5624 5615 5605 5595 5585 5574 5562 5551 5541 5530 5519 5508 5498 5489 5484 5491 5500 5497 5494 5489 5487 5487 5484 5484 5486 5487 5488 5488 5489 5490 5492 5495 5498 5500 5503 5505
5670 5661 5653 5643 5634 5623 5613 5602 5592 5581 5570 5559 5547 5535 5524 5513 5504 5495 5486 5477 5467 5455 5453 5464 5466 5466 5463 5461 5460 5457 5457 5458 5460 5463 5465 5466 5468 5470 5473 5477 5480 5483 5486
5653 5644 5634 5625 5614 5603 5591 5580 5569 5556 5544 5532 5520 5508 5497 5487 5479 5472 5464 5457 5450 5439 5430 5436 5439 5440 5438 5436 5436 5434 5433 5433 5435 5438 5439 5441 5444 5448 5451 5455 5458 5461 5465
5635 5626 5615 5605 5593 5581 5567 5555 5543 5529 5516 5504 5493 5481 5472 5463 5456 5449 5443 5437 5430 5422 5413 5410 5416 5418 5417 5414 5411 5411 5412 5411 5413 5415 5415 5418 5421 5425 5429 5433 5436 5440 5444
5618 5607 5595 5582 5569 5555 5540 5526 5512 5499 5486 5476 5466 5457 5449 5441 5436 5429 5423 5416 5410 5403 5395 5387 5388 5392 5393 5391 5387 5387 5388 5390 5392 5393 5394 5397 5400 5403 5408 5412 5416 5420 5425
5598 5586 5572 5557 5542 5526 5511 5497 5484 5473 5463 5454 5445 5436 5428 5420 5413 5407 5401 5394 5386 5380 5373 5366 5362 5362 5363 5364 5360 5359 5362 5367 5369 5371 5372 5375 5379 5382 5387 5391 5396 5400 5404
5575 5561 5546 5531 5515 5499 5484 5471 5460 5451 5441 5433 5425 5415 5406 5398 5389 5381 5374 5368 5360 5352 5347 5341 5336 5333 5333 5333 5331 5330 5332 5340 5347 5349 5350 5355 5357 5362 5367 5371 5375 5380 5385
5551 5536 5521 5506 5492 5476 5463 5450 5437 5427 5418 5408 5399 5391 5382 5374 5364 5354 5346 5337 5329 5321 5315 5310 5306 5304 5303 5302 5300 5301 5304 5311 5322 5330 5328 5334 5337 5343 5348 5352 5356 5361 5367
5529 5514 5499 5484 5471 5458 5443 5430 5415 5402 5392 5381 5370 5360 5352 5343 5331 5321 5313 5307 5301 5294 5285 5280 5279 5277 5275 5275 5274 5277 5279 5285 5295 5306 5307 5315 5320 5325 5330 5334 5339 5345 5350
5507 5493 5480 5466 5453 5438 5422 5406 5389 5376 5365 5354 5342 5331 5320 5310 5298 5286 5279 5275 5272 5268 5262 5259 5257 5254 5253 5253 5254 5256 5259 5265 5275 5284 5289 5296 5303 5308 5313 5318 5322 5327 5333
5488 5475 5462 5447 5431 5417 5399 5382 5365 5352 5343 5334 5324 5312 5298 5286 5276 5264 5254 5250 5248 5247 5245 5243 5240 5238 5236 5237 5238 5240 5244 5249 5258 5267 5272 5277 5285 5290 5296 5302 5306 5311 5317
5470 5458 5445 5428 5410 5394 5379 5363 5347 5334 5326 5319 5310 5299 5286 5272 5262 5252 5243 5237 5233 5232 5231 5230 5228 5225 5225 5227 5228 5230 5233 5237 5243 5251 5257 5261 5267 5272 5279 5286 5290 5295 5302